Location: ???? ???? ?????
(31.2680°N, 31.7283°E)
Time: 04:34:12
(UTC+00:00)

SEDSat Delta rocket - Pass Details

Date: 13 July 2020
Orbit: 533 x 1000 km, 31.4° (Epoch: 11 August)

Event Time Altitude Azimuth Distance (km) Brightness Sun altitude
Rises 17:19:55 0° 231° (SW) 3,004 6.9 -4.8°
Reaches altitude 10° 17:22:17 10° 223° (SW) 2,164 6.0 -5.2°
Maximum altitude 17:27:03 39° 155° (SSE) 1,144 4.1 -6.1°
Drops below altitude 10° 17:32:28 10° 88° (E) 2,475 5.6 -7.1°
Enters shadow 17:35:12 - 81° (E) 3,436 6.4 -7.6°
